GFSNGP_2pvu_pres_078.txt.gz
Presure
285 283 277 285 287 292 285 291 285 282 280 279 283 281 270 262 262 264 281 273 273 271 268 265 258 250 244 239 235 232 225 221 217 103 212 217 219 210 205 204 204 203 203 204
278 271 276 275 278 276 282 279 273 278 267 291 296 295 275 288 286 288 289 272 280 288 290 275 272 271 269 266 260 253 246 241 235 101 227 116 222 211 218 220 217 215 144 217
145 147 292 275 284 271 266 273 271 265 267 272 269 268 276 282 283 284 273 258 273 275 283 284 235 287 254 298 294 295 302 323 325 290 281 274 269 254 245 242 239 243 221 256
125 136 141 144 294 281 277 274 274 262 269 273 268 274 277 280 276 285 268 256 259 269 274 261 269 271 282 257 266 307 299 296 291 306 285 259 307 297 278 279 265 269 275 204
305 121 218 299 182 287 282 270 274 269 267 296 266 266 272 291 267 286 279 268 251 263 295 299 302 300 299 297 293 285 283 287 288 289 289 246 292 180 180 305 294 283 280 267
310 299 255 331 306 160 241 305 290 289 298 307 280 299 292 287 295 310 262 274 268 311 308 306 296 313 312 313 312 309 307 293 285 311 316 280 292 288 296 289 286 292 299 297
328 310 297 285 285 281 309 155 300 303 311 315 308 302 305 302 296 295 289 293 291 297 306 300 300 290 302 304 302 296 291 293 290 292 293 294 297 327 335 339 338 316 320 306
141 328 303 277 288 284 279 276 274 281 283 283 280 279 280 282 288 289 289 282 276 276 283 282 285 285 284 284 289 282 275 279 282 280 279 282 281 290 298 300 313 302 306 302
374 205 319 286 142 283 280 276 269 269 270 279 287 284 279 276 277 276 276 275 277 283 282 283 283 281 282 282 280 272 277 294 287 288 273 280 289 285 268 285 277 290 303 286
290 380 341 321 307 296 287 279 273 269 261 264 258 259 259 258 253 254 254 251 258 265 271 272 274 265 258 269 295 281 272 263 268 279 267 273 279 276 273 267 267 272 273 276
291 184 207 277 320 302 300 292 281 277 272 265 261 264 258 257 257 258 255 256 256 256 254 254 253 252 255 255 318 311 282 274 267 262 262 268 266 264 271 270 271 270 269 269
312 276 304 313 337 313 300 291 288 285 286 280 275 268 267 266 262 260 259 260 262 266 264 260 259 254 252 258 259 288 287 284 274 274 272 264 264 265 261 257 254 255 259 257
266 287 277 272 350 337 315 299 290 278 286 281 281 275 276 278 277 272 269 265 266 268 269 269 269 266 263 253 254 253 282 281 279 275 272 269 270 270 264 267 265 262 257 253
253 128 293 269 297 327 342 323 299 288 282 278 277 277 276 274 272 272 274 276 277 278 279 286 287 284 266 261 259 252 251 271 269 266 266 264 264 262 262 264 262 259 254 255
177 178 280 296 266 256 358 342 329 299 285 276 275 272 270 272 270 269 265 266 266 265 267 271 270 273 283 270 260 254 251 250 246 270 268 272 271 266 261 266 261 261 265 256
111 180 232 269 298 284 336 351 344 324 302 286 275 272 267 265 263 263 262 261 261 263 262 261 265 267 267 267 277 273 257 252 248 250 242 255 268 272 273 270 268 265 262 262
240 252 215 256 288 265 326 369 348 326 312 301 292 279 270 268 263 261 261 262 264 263 264 267 265 258 269 265 260 262 277 269 252 249 247 248 240 247 249 243 242 245 244 243
238 244 240 242 285 319 305 389 366 345 324 305 301 293 285 279 271 269 266 265 268 269 270 272 277 280 289 275 274 266 264 263 274 262 251 247 247 247 243 239 239 239 239 239
241 248 229 247 273 277 283 423 372 361 342 323 309 298 293 289 282 278 274 275 270 272 276 281 287 290 292 300 292 284 265 265 262 268 268 262 256 251 248 247 246 245 246 245
234 248 241 245 261 282 266 338 407 375 359 341 327 311 296 287 286 281 279 277 278 276 280 292 321 397 393 389 321 282 281 272 264 255 257 262 263 259 259 259 259 261 262 263
235 224 238 213 262 283 265 330 415 384 360 347 337 325 313 303 288 283 278 276 277 277 294 302 352 362 347 351 359 288 283 268 270 263 261 253 252 253 255 260 261 259 258 256
235 169 246 210 259 282 274 350 342 399 367 348 335 325 317 307 300 290 284 280 280 281 294 285 333 332 325 327 321 285 276 275 271 272 263 260 261 261 259 253 252 255 258 262
236 236 248 220 263 280 281 357 341 423 382 352 336 328 318 309 305 299 290 288 284 281 285 286 318 310 310 314 312 282 272 273 270 266 267 265 264 264 264 264 266 269 272 268
210 197 250 223 242 274 288 356 333 348 416 367 344 331 317 305 302 296 295 283 282 282 277 285 305 306 303 299 300 303 276 266 265 267 270 269 268 267 267 267 267 271 272 277
237 212 250 243 243 277 313 353 337 331 392 381 348 330 322 308 299 294 297 282 290 276 270 277 307 305 294 291 293 294 294 268 273 274 270 267 266 267 272 271 263 281 319 293
207 248 222 250 280 280 315 358 337 346 366 365 352 337 319 315 301 294 296 289 287 274 274 269 278 286 300 296 296 295 294 293 294 296 297 297 296 297 304 309 301 291 283 279
240 248 240 283 284 301 327 342 335 368 375 357 346 337 333 315 307 302 294 290 292 280 278 271 268 276 276 282 289 292 293 292 292 292 293 295 295 294 288 285 280 275 273 268

GFSNGP_2pvu_pres_081.txt.gz
Presure
149 187 308 310 301 303 307 308 302 299 277 315 300 315 322 270 272 272 283 287 291 294 287 260 254 249 246 241 233 229 228 226 226 226 228 232 232 218 221 242 240 239 233 217
284 138 136 144 170 293 290 291 291 309 311 307 266 257 268 269 300 292 263 274 289 292 294 290 284 280 268 253 250 247 245 240 235 232 229 227 224 132 145 166 225 227 223 220
292 288 189 178 273 287 284 292 289 283 282 284 283 281 281 282 286 284 285 277 274 271 277 280 279 281 285 293 284 271 266 263 264 259 257 256 253 251 249 248 249 246 248 212
322 316 290 291 216 278 249 208 281 281 282 281 283 281 282 290 277 277 281 286 267 269 280 279 272 281 288 286 286 290 296 300 303 301 301 289 280 300 299 300 290 300 315 317
295 315 331 310 289 281 288 282 157 214 278 280 276 277 273 272 275 276 275 276 268 269 285 268 268 268 288 290 289 282 289 286 279 257 277 288 274 265 289 291 296 295 297 297
337 328 314 307 315 242 317 294 283 278 279 274 270 268 272 272 275 268 262 268 271 265 278 282 271 275 278 283 289 287 284 290 289 288 291 299 316 315 314 312 248 248 342 351
325 125 304 320 306 309 315 293 300 299 292 288 283 280 287 277 273 274 275 284 271 275 284 288 290 288 285 291 313 313 305 315 311 303 294 298 299 292 297 294 298 297 287 317
302 306 122 311 322 313 302 294 288 287 291 318 314 314 306 310 314 308 306 305 306 302 300 294 292 293 290 294 302 299 294 290 290 300 291 288 288 280 280 282 286 289 286 291
254 143 276 291 353 329 312 302 292 288 281 274 277 275 273 277 283 281 278 272 273 274 284 286 285 282 272 267 276 276 275 277 287 277 290 289 278 272 279 276 274 279 278 277
146 200 143 294 301 273 326 314 307 296 286 277 278 273 271 274 276 282 289 285 277 273 274 275 277 276 274 274 272 265 267 253 263 270 285 278 274 274 280 270 269 268 283 277
177 242 239 257 295 325 380 297 321 310 298 288 280 275 272 270 264 261 258 258 258 252 254 252 249 249 254 258 263 266 267 262 264 257 309 298 275 273 262 271 265 252 265 271
228 189 184 241 238 170 255 361 348 331 308 300 294 284 273 273 268 263 257 254 252 252 253 255 254 253 255 256 257 255 251 251 251 254 308 307 287 270 272 262 263 262 257 257
251 230 252 244 265 249 271 288 384 365 338 312 303 289 283 282 277 274 265 262 257 253 253 254 257 259 262 265 265 266 264 262 255 251 252 284 280 277 275 278 272 273 274 271
236 202 219 245 243 120 120 310 325 390 370 339 316 301 289 279 278 281 280 274 271 273 269 267 264 263 263 272 274 272 274 275 267 263 255 250 269 266 266 268 263 261 263 262
238 232 239 234 236 260 236 247 349 349 405 364 347 315 300 289 285 277 276 274 273 273 274 270 268 273 272 267 267 268 276 282 277 264 262 254 249 260 265 263 263 264 263 262
216 236 240 239 235 250 219 263 334 354 351 399 356 331 309 294 285 283 274 269 270 269 268 267 267 263 264 264 263 263 265 265 266 275 266 255 255 249 248 249 255 273 273 272
231 247 228 234 235 251 226 261 291 334 352 352 380 340 326 315 296 285 282 276 271 266 266 264 263 262 262 260 259 261 262 264 265 264 262 269 267 252 250 245 249 246 242 245
236 224 240 241 233 226 243 246 264 303 342 353 414 372 336 320 310 301 289 280 275 269 269 267 265 264 265 266 267 269 269 270 261 266 265 259 256 267 265 250 247 245 241 241
225 225 239 234 222 236 252 251 249 297 340 365 369 401 367 340 320 305 304 299 286 278 274 269 266 264 266 269 271 269 267 282 281 286 282 263 258 260 257 267 264 253 247 245
228 230 237 214 206 225 254 222 252 321 332 342 381 350 387 359 340 327 309 297 290 290 290 287 280 278 278 279 287 288 289 288 296 292 283 274 280 261 258 255 254 266 266 258
223 224 240 235 207 222 251 233 239 282 324 331 366 347 389 375 347 333 325 312 296 290 285 283 280 281 279 282 284 293 379 375 365 378 384 296 273 273 262 259 255 252 254 258
230 214 239 236 220 212 241 262 229 284 325 329 339 334 352 379 355 330 323 315 310 302 292 284 279 278 285 286 302 343 339 332 336 336 340 291 273 272 266 265 260 258 256 254
241 212 219 240 234 209 230 261 250 275 326 330 318 342 372 390 355 339 322 310 306 299 293 289 288 280 284 294 284 326 308 309 309 317 309 285 272 269 274 261 263 263 260 258
230 232 244 205 229 256 245 244 266 288 322 330 350 337 337 395 359 335 329 313 305 300 295 290 286 283 283 287 277 302 308 307 293 293 266 274 272 268 274 273 264 266 266 266
225 241 235 235 233 251 248 240 251 312 327 333 356 331 347 370 383 336 323 318 307 301 297 292 290 280 281 281 275 308 299 299 293 293 298 278 275 261 259 259 258 258 259 265
231 243 212 227 216 248 246 265 292 328 330 356 332 333 349 391 362 347 325 321 310 303 299 288 292 277 283 279 275 273 298 295 294 293 291 291 292 286 270 269 269 267 265 268
245 221 241 211 224 252 254 275 332 333 341 343 338 346 362 403 363 343 334 316 316 308 302 294 293 282 284 277 273 270 268 284 299 293 292 292 292 292 293 293 292 292 295 298

GFSNGP_2pvu_pres_084.txt.gz
Presure
294 254 183 137 145 308 305 308 294 303 331 320 325 307 300 298 287 278 282 295 293 297 277 270 260 256 254 259 260 213 211 213 216 214 212 207 204 201 199 173 198 198 198 182
308 309 300 124 300 296 307 307 308 321 312 279 308 310 317 323 282 280 276 283 281 303 298 290 290 286 261 257 257 258 260 260 253 216 216 218 219 235 233 216 211 211 214 221
302 149 300 296 311 234 294 293 205 298 309 320 304 297 288 293 300 307 318 281 269 269 300 292 293 296 294 295 296 297 270 263 261 260 257 252 242 233 230 229 224 201 224 226
340 322 311 147 299 297 308 300 293 233 290 294 297 306 303 285 273 268 274 279 295 290 293 286 273 274 280 278 288 291 295 296 301 303 290 280 278 277 277 214 273 215 282 297
350 306 300 123 133 311 302 297 195 282 294 292 299 298 292 291 293 290 283 280 273 271 251 256 265 269 282 284 286 290 285 285 291 276 301 302 305 303 269 269 267 273 278 275
274 277 329 341 338 143 306 309 309 300 291 299 290 285 292 280 290 290 289 286 278 292 286 291 292 286 284 278 279 279 282 278 277 253 255 257 295 264 267 269 288 280 245 246
200 152 147 120 205 311 342 321 325 324 298 195 289 286 284 286 278 271 280 278 281 277 268 267 273 268 269 276 272 276 290 284 280 282 282 279 293 293 312 307 303 298 301 291
204 189 126 116 270 250 359 344 334 321 141 319 306 293 287 287 284 282 279 280 274 274 275 282 281 280 284 286 290 300 306 301 304 304 309 308 299 299 299 291 292 286 285 286
250 147 201 246 219 265 285 306 303 343 325 313 305 295 289 312 306 294 297 302 299 304 320 316 307 305 306 303 298 292 290 290 285 277 295 288 295 279 283 277 286 282 283 277
145 135 180 110 223 254 250 261 294 148 359 338 315 304 297 289 282 274 275 279 273 273 278 279 276 268 270 277 285 279 282 284 288 286 280 275 273 265 264 262 266 277 275 275
216 238 206 243 184 241 269 257 260 247 303 338 376 333 305 296 289 282 277 272 265 266 271 273 281 283 276 265 266 272 273 273 268 260 265 261 270 264 268 256 305 288 279 271
137 211 164 171 244 217 250 273 270 209 109 281 348 369 361 318 294 290 283 277 271 264 263 262 260 260 257 260 253 252 247 246 246 248 248 249 249 251 248 252 251 308 290 268
167 164 201 242 121 242 243 232 261 250 261 306 297 351 395 358 326 293 284 286 280 271 269 261 258 254 255 254 252 252 254 252 251 254 255 259 256 255 258 251 252 285 284 276
141 227 230 201 249 237 223 239 210 260 253 278 318 363 359 380 358 327 299 282 278 280 270 268 262 261 257 253 252 251 251 253 252 257 264 262 264 265 264 261 259 250 274 268
195 158 179 231 147 232 226 237 260 205 246 274 286 322 396 407 365 345 324 300 282 277 275 272 269 271 268 265 264 264 262 260 262 262 271 281 283 277 276 263 258 255 250 265
159 197 191 229 222 235 234 236 225 235 255 263 284 326 333 356 394 352 341 323 307 282 276 271 275 275 271 271 269 270 268 265 270 270 266 266 268 269 281 270 255 253 252 247
145 207 221 136 230 217 234 236 230 246 260 261 282 317 326 340 376 376 338 329 315 306 289 279 276 270 268 268 266 265 267 267 263 261 262 262 258 259 260 257 265 269 253 251
190 144 159 227 235 229 234 232 236 232 252 255 288 309 328 335 382 374 376 330 318 311 303 293 281 276 267 266 265 266 265 264 263 260 261 259 256 256 259 261 257 258 261 268
148 231 224 212 242 208 231 213 234 221 248 248 269 296 325 325 336 343 367 376 334 315 308 301 295 285 276 268 267 264 264 263 261 261 261 257 259 260 256 259 250 259 261 252
125 226 219 218 239 213 230 230 232 226 257 257 263 296 326 326 351 347 337 391 364 334 318 304 300 298 293 280 274 271 270 269 270 268 271 272 273 273 272 276 275 291 270 263
212 214 220 222 213 231 228 237 229 235 262 256 260 301 325 327 347 346 333 345 374 346 333 317 305 296 292 289 289 281 278 276 277 278 285 288 288 292 295 290 287 266 265 255
206 201 233 213 213 243 218 241 210 233 251 255 256 313 328 328 343 336 332 344 374 346 331 320 317 306 301 292 286 283 282 280 281 283 288 313 364 358 362 371 325 277 270 264
217 211 227 192 184 235 228 247 230 224 256 262 256 321 330 346 342 342 332 349 373 347 326 317 311 302 300 296 295 289 285 282 285 288 333 314 314 319 322 328 324 323 272 267
229 222 226 219 198 227 234 242 252 236 258 262 278 321 334 343 344 350 341 361 388 347 332 312 307 303 296 292 287 286 289 281 284 281 290 301 292 290 286 292 291 291 279 275
214 231 224 212 235 237 235 217 234 261 239 262 320 332 335 353 343 363 370 406 387 351 335 318 306 302 294 290 289 287 283 280 279 279 298 301 290 286 288 288 283 277 275 271
223 233 221 211 242 242 235 229 229 257 261 272 321 336 336 353 191 362 411 409 364 369 335 330 310 304 296 292 289 280 290 279 279 274 287 291 285 287 290 280 280 280 263 256
228 226 221 244 230 237 248 237 248 273 256 337 334 344 347 340 348 407 408 397 389 362 344 330 320 307 304 296 293 282 286 281 277 273 267 282 290 290 292 293 294 298 297 294

GFSNGP_2pvu_pres_090.txt.gz
Presure
190 325 193 183 336 351 358 303 296 286 287 290 291 283 280 279 283 283 285 287 286 293 297 320 294 278 268 220 210 200 201 200 201 205 210 212 198 189 185 187 189 190 198 185
146 212 334 330 323 334 339 369 362 300 300 134 299 294 291 292 289 296 291 281 293 285 287 290 297 296 291 289 296 295 277 200 194 194 204 222 224 221 221 218 179 200 206 216
152 199 198 284 136 346 226 327 326 336 347 342 327 318 313 309 308 304 287 285 282 287 283 300 284 289 270 294 286 285 286 303 276 293 291 265 285 235 236 216 221 215 208 222
261 154 167 133 319 283 349 226 342 336 342 345 334 319 318 339 355 332 308 294 294 291 285 280 279 280 279 286 298 290 287 288 321 307 287 283 288 301 302 287 284 280 279 278
205 194 163 124 175 134 282 146 277 252 348 343 334 331 314 307 328 339 337 327 328 329 331 336 333 326 321 322 327 327 322 314 310 306 310 307 305 290 298 203 271 265 306 304
160 255 255 155 164 250 135 146 120 131 262 281 343 346 339 326 319 308 308 300 320 323 319 310 302 297 300 298 300 299 297 290 316 317 315 312 285 279 258 257 256 255 260 260
205 136 204 244 138 234 162 196 249 124 217 132 267 302 335 391 358 253 313 302 298 295 287 285 288 300 312 308 296 295 297 295 288 245 296 265 265 275 264 264 263 266 294 258
145 159 154 231 137 174 127 200 253 213 167 185 260 213 231 277 329 317 124 355 330 302 290 286 279 280 277 280 290 285 279 281 281 279 274 271 271 278 278 286 279 271 277 284
142 157 161 211 132 126 140 232 227 191 254 249 245 260 265 235 273 300 137 415 397 350 319 308 310 279 278 276 271 269 275 273 271 280 280 277 278 279 275 270 271 289 321 321
158 153 145 247 128 207 234 217 143 233 236 252 221 241 271 254 245 294 312 343 364 404 394 340 310 295 284 291 278 272 268 267 271 267 265 261 270 269 274 277 320 313 304 300
158 143 137 209 216 223 204 188 227 228 217 223 225 243 236 244 243 290 276 298 337 343 369 369 378 321 298 295 286 285 274 269 268 271 273 276 277 278 309 301 287 284 286 282
200 153 140 122 189 193 132 173 225 221 236 215 244 242 220 267 248 263 279 288 335 341 372 363 425 380 334 298 288 288 284 279 292 299 298 303 303 292 277 277 269 277 275 275
153 158 150 147 232 170 206 223 199 236 219 232 226 215 248 229 271 258 284 297 297 314 354 375 418 411 364 334 302 282 278 276 270 267 267 267 270 265 264 272 277 273 265 265
177 145 145 149 130 226 185 185 120 243 219 212 220 231 243 242 249 276 271 287 301 317 335 365 355 398 372 345 323 301 283 277 271 272 268 266 264 259 260 266 273 263 265 254
184 147 134 171 145 135 200 172 223 232 220 224 211 244 238 254 252 257 286 287 300 306 324 361 363 384 363 353 327 311 295 284 278 271 267 266 263 264 264 261 253 256 254 252
209 140 137 126 128 210 219 127 184 233 225 216 222 232 227 228 255 249 261 291 297 335 336 359 379 340 368 344 337 316 302 292 283 277 275 266 267 262 258 258 257 252 250 250
177 165 152 200 194 156 155 158 203 231 241 221 203 238 234 227 239 247 263 294 300 343 321 365 350 354 335 357 336 332 315 301 292 283 276 277 275 270 262 254 260 257 253 254
126 194 134 144 220 172 183 220 213 229 236 223 224 219 231 227 222 249 275 298 289 311 356 363 353 343 335 343 350 327 335 313 302 291 285 276 276 276 273 269 265 265 265 268
183 144 133 194 122 132 193 219 203 214 222 216 217 221 231 221 229 251 275 300 291 322 351 364 356 353 339 331 353 347 323 328 308 300 292 285 276 275 268 265 263 264 267 265
170 171 134 149 149 214 236 219 233 212 233 221 226 218 242 201 246 230 264 296 301 304 374 366 351 349 353 339 346 368 339 319 319 309 299 290 284 274 271 266 264 266 264 263
164 181 147 159 222 178 185 179 214 202 225 219 215 216 240 210 245 254 304 307 301 322 382 363 353 360 359 359 352 373 352 330 314 308 308 301 291 282 273 271 266 264 264 262
147 204 158 172 200 169 217 223 231 238 217 233 230 243 246 218 254 263 259 305 323 324 365 368 358 365 376 376 353 372 353 336 322 308 303 305 303 291 283 274 269 268 266 265
157 141 189 206 203 199 213 222 220 208 191 209 193 227 234 247 252 285 324 305 311 357 370 374 369 379 395 380 372 356 338 329 324 320 319 316 302 296 294 290 284 277 274 272
122 206 154 161 183 218 214 230 230 233 232 238 252 234 221 224 249 253 309 324 323 382 384 384 384 397 417 401 372 353 338 322 316 318 313 313 310 307 304 292 291 288 281 282
206 153 184 169 224 192 181 228 230 235 207 194 217 238 248 225 251 253 328 335 362 398 394 393 400 414 421 403 371 343 325 320 315 303 306 305 301 298 294 291 292 289 286 289
190 146 167 152 198 226 215 231 237 223 215 198 234 214 238 265 288 333 332 416 404 400 398 400 407 422 417 397 369 338 323 320 308 308 295 298 293 288 288 288 286 287 279 279
171 172 231 230 219 224 241 225 221 238 210 235 229 245 222 244 333 325 398 412 409 407 408 411 412 419 405 391 370 341 320 323 309 306 298 294 290 298 295 288 279 278 276 269